カタログに戻る

HULIANWANG DIGUI-107

運用中通信LEO
NORAD 66917·PAYLOAD·🇨🇳 China

打ち上げ Dec 6, 2025 から Wenchang Space Launch Site

Loading…

次のパス (今後24時間)

TLE

最新Source: Space-Track

元期: Sep 14, 2026, 13:08 UTC

1 66917U 25285C   26257.54759833 -.00000082  00000-0  90318-4 0  9993
2 66917  50.0020 185.5340 0000195 250.8296 109.2555 13.29327286 37944

AllMySatでHULIANWANG DIGUI-107をリアルタイム追跡

Download on the App Store